• In Czech Republic
  • List of Countries
  • For 7 days
  • Water Temperature
  • Satellite Maps
  • Weather Map
  • Weather Widgets
  • user-avatar
    Login

    Hourly Weather Encamp

    Today, 20 November, Monday

    Time Temperature Precipitation Wind Pressure Humidity
    00:00 -1°C° 0 mm 2 mps 626 mmHg 58%
    01:00 -1°C° 0 mm 2 mps 626 mmHg 59%
    02:00 -1°C° 0 mm 2 mps 626 mmHg 60%
    03:00 -1°C° 0 mm 2 mps 626 mmHg 60%
    04:00 -1°C° 0 mm 2 mps 626 mmHg 60%
    05:00 -1°C° 0 mm 2 mps 626 mmHg 59%
    06:00 -1°C° 0 mm 2 mps 626 mmHg 60%
    07:00 +2°C° 0 mm 2 mps 626 mmHg 56%
    08:00 +5°C° 0 mm 1 mps 627 mmHg 52%
    09:00 +6°C° 0 mm 1 mps 628 mmHg 48%
    10:00 +8°C° 0 mm 1 mps 628 mmHg 44%
    11:00 +10°C° 0 mm 1 mps 629 mmHg 41%
    12:00 +11°C° 0 mm 1 mps 629 mmHg 39%
    13:00 +10°C° 0 mm 1 mps 629 mmHg 42%
    14:00 +10°C° 0 mm 1 mps 629 mmHg 44%
    15:00 +9°C° 0 mm 1 mps 628 mmHg 47%
    16:00 +7°C° 0 mm 1 mps 627 mmHg 52%
    17:00 +5°C° 0 mm 1 mps 626 mmHg 58%
    18:00 +3°C° 0 mm 1 mps 625 mmHg 63%
    19:00 +3°C° 0 mm 1 mps 626 mmHg 61%
    20:00 +3°C° 0 mm 1 mps 626 mmHg 60%
    21:00 +3°C° 0 mm 1 mps 626 mmHg 58%
    22:00 +3°C° 0 mm 1 mps 626 mmHg 58%
    23:00 +3°C° 0 mm 1 mps 626 mmHg 57%

    Tomorrow, 21 November, Tuesday

    Time Temperature Precipitation Wind Pressure Humidity
    00:00 +3°C° 0 mm 1 mps 626 mmHg 57%
    01:00 +3°C° 0 mm 1 mps 625 mmHg 56%
    02:00 +3°C° 0 mm 1 mps 625 mmHg 55%
    03:00 +3°C° 0 mm 1 mps 625 mmHg 55%
    04:00 +3°C° 0 mm 1 mps 625 mmHg 53%
    05:00 +3°C° 0 mm 1 mps 625 mmHg 52%
    06:00 +3°C° 0 mm 1 mps 625 mmHg 51%
    07:00 +4°C° 0 mm 1 mps 626 mmHg 47%
    08:00 +6°C° 0 mm 1 mps 627 mmHg 43%
    09:00 +7°C° 0 mm 0 mps 627 mmHg 39%
    10:00 +9°C° 0 mm 1 mps 628 mmHg 36%
    11:00 +11°C° 0 mm 1 mps 628 mmHg 32%
    12:00 +12°C° 0 mm 1 mps 628 mmHg 29%
    13:00 +12°C° 0 mm 1 mps 628 mmHg 33%
    14:00 +11°C° 0 mm 1 mps 627 mmHg 38%
    15:00 +11°C° 0 mm 1 mps 627 mmHg 42%
    16:00 +8°C° 0 mm 1 mps 626 mmHg 47%
    17:00 +6°C° 0 mm 1 mps 625 mmHg 51%
    18:00 +4°C° 0 mm 1 mps 624 mmHg 56%
    19:00 +4°C° 0 mm 1 mps 624 mmHg 56%
    20:00 +4°C° 0 mm 1 mps 624 mmHg 55%
    21:00 +4°C° 0 mm 1 mps 624 mmHg 55%
    22:00 +3°C° 0 mm 1 mps 624 mmHg 54%
    23:00 +3°C° 0 mm 1 mps 623 mmHg 53%

    Day after tomorrow, 22 November, Wednesday

    Time Temperature Precipitation Wind Pressure Humidity
    00:00 +3°C° 0 mm 1 mps 623 mmHg 52%
    01:00 +3°C° 0 mm 1 mps 623 mmHg 50%
    02:00 +3°C° 0 mm 1 mps 623 mmHg 49%
    03:00 +3°C° 0 mm 1 mps 622 mmHg 47%
    04:00 +2°C° 0 mm 1 mps 622 mmHg 44%
    05:00 +2°C° 0 mm 1 mps 622 mmHg 42%
    06:00 +2°C° 0 mm 1 mps 621 mmHg 39%
    07:00 +4°C° 0 mm 1 mps 622 mmHg 38%
    08:00 +5°C° 0 mm 2 mps 623 mmHg 37%
    09:00 +6°C° 0 mm 2 mps 624 mmHg 36%
    10:00 +8°C° 0 mm 2 mps 624 mmHg 34%
    11:00 +9°C° 0 mm 2 mps 625 mmHg 32%
    12:00 +12°C° 0 mm 2 mps 625 mmHg 30%
    13:00 +10°C° 0 mm 2 mps 624 mmHg 33%
    14:00 +10°C° 0 mm 2 mps 624 mmHg 36%
    15:00 +9°C° 0 mm 2 mps 623 mmHg 39%
    16:00 +7°C° 0 mm 2 mps 623 mmHg 42%
    17:00 +6°C° 0 mm 1 mps 622 mmHg 45%
    18:00 +3°C° 0 mm 1 mps 621 mmHg 48%
    19:00 +3°C° 0 mm 1 mps 622 mmHg 46%
    20:00 +3°C° 0 mm 1 mps 622 mmHg 43%
    21:00 +3°C° 0 mm 1 mps 622 mmHg 41%
    22:00 +2°C° 0 mm 2 mps 622 mmHg 41%
    23:00 +2°C° 0 mm 2 mps 622 mmHg 41%

    23 November, Thursday

    Time Temperature Precipitation Wind Pressure Humidity
    00:00 +2°C° 0 mm 2 mps 622 mmHg 41%
    01:00 +3°C° 0 mm 1 mps 622 mmHg 43%
    02:00 +3°C° 0 mm 1 mps 622 mmHg 46%
    03:00 +3°C° 0 mm 1 mps 622 mmHg 48%
    04:00 +3°C° 0 mm 1 mps 622 mmHg 49%
    05:00 +3°C° 0 mm 1 mps 623 mmHg 51%
    06:00 +3°C° 0 mm 1 mps 623 mmHg 52%
    07:00 +5°C° 0 mm 1 mps 624 mmHg 51%
    08:00 +6°C° 0 mm 1 mps 625 mmHg 49%
    09:00 +8°C° 0 mm 1 mps 626 mmHg 48%
    10:00 +9°C° 0 mm 1 mps 626 mmHg 47%
    11:00 +9°C° 0 mm 2 mps 627 mmHg 46%
    12:00 +12°C° 0 mm 2 mps 627 mmHg 45%
    13:00 +10°C° 0 mm 2 mps 627 mmHg 49%
    14:00 +10°C° 0 mm 2 mps 627 mmHg 53%
    15:00 +9°C° 0 mm 2 mps 626 mmHg 56%
    16:00 +7°C° 0 mm 2 mps 626 mmHg 62%
    17:00 +6°C° 0 mm 2 mps 625 mmHg 68%
    18:00 +5°C° 0 mm 1 mps 625 mmHg 74%
    19:00 +5°C° 0 mm 1 mps 625 mmHg 72%
    20:00 +5°C° 0 mm 1 mps 625 mmHg 71%
    21:00 +5°C° 0 mm 1 mps 626 mmHg 70%
    22:00 +5°C° 0 mm 1 mps 626 mmHg 70%
    23:00 +5°C° 0 mm 1 mps 626 mmHg 70%

    24 November, Friday

    Time Temperature Precipitation Wind Pressure Humidity
    00:00 +5°C° 0 mm 1 mps 626 mmHg 69%
    01:00 +5°C° 0 mm 1 mps 625 mmHg 69%
    02:00 +4°C° 0 mm 1 mps 625 mmHg 69%
    03:00 +4°C° 0 mm 1 mps 625 mmHg 68%
    04:00 +4°C° 0 mm 1 mps 625 mmHg 66%
    05:00 +4°C° 0 mm 1 mps 625 mmHg 64%
    06:00 +4°C° 0 mm 1 mps 625 mmHg 62%
    07:00 +4°C° 0 mm 2 mps 626 mmHg 57%
    08:00 +6°C° 0 mm 2 mps 626 mmHg 52%
    09:00 +7°C° 0 mm 2 mps 627 mmHg 48%
    10:00 +9°C° 0 mm 2 mps 627 mmHg 45%
    11:00 +10°C° 0 mm 3 mps 628 mmHg 41%
    12:00 +11°C° 0 mm 3 mps 628 mmHg 38%
    13:00 +11°C° 0 mm 3 mps 627 mmHg 41%
    14:00 +10°C° 0 mm 3 mps 627 mmHg 44%
    15:00 +9°C° 0 mm 3 mps 626 mmHg 46%
    16:00 +8°C° 0 mm 2 mps 626 mmHg 51%
    17:00 +6°C° 0 mm 2 mps 625 mmHg 56%
    18:00 +4°C° 0 mm 2 mps 625 mmHg 61%
    19:00 +4°C° 0 mm 2 mps 625 mmHg 63%
    20:00 +4°C° 0 mm 2 mps 625 mmHg 64%
    21:00 +3°C° 0 mm 2 mps 625 mmHg 66%
    22:00 +3°C° 0 mm 2 mps 624 mmHg 63%
    23:00 +3°C° 0 mm 2 mps 624 mmHg 60%

    25 November, Saturday

    Time Temperature Precipitation Wind Pressure Humidity
    00:00 +3°C° 0 mm 2 mps 624 mmHg 57%
    01:00 +3°C° 0 mm 2 mps 624 mmHg 55%
    02:00 +3°C° 0 mm 2 mps 624 mmHg 53%
    03:00 +2°C° 0 mm 2 mps 624 mmHg 52%
    04:00 +2°C° 0 mm 2 mps 624 mmHg 51%
    05:00 +2°C° 0 mm 2 mps 624 mmHg 50%
    06:00 +2°C° 0 mm 2 mps 624 mmHg 50%
    07:00 +4°C° 0 mm 2 mps 625 mmHg 47%
    08:00 +5°C° 0 mm 2 mps 625 mmHg 45%
    09:00 +6°C° 0 mm 2 mps 626 mmHg 42%
    10:00 +8°C° 0 mm 2 mps 626 mmHg 42%
    11:00 +9°C° 0 mm 2 mps 627 mmHg 41%
    12:00 +10°C° 0 mm 2 mps 627 mmHg 40%
    13:00 +10°C° 0 mm 2 mps 627 mmHg 44%
    14:00 +9°C° 0 mm 2 mps 627 mmHg 47%
    15:00 +9°C° 0 mm 1 mps 627 mmHg 51%
    16:00 +7°C° 0 mm 1 mps 626 mmHg 57%
    17:00 +6°C° 0 mm 1 mps 626 mmHg 64%
    18:00 +4°C° 0 mm 1 mps 626 mmHg 70%
    19:00 +4°C° 0.1 mm 1 mps 626 mmHg 70%
    20:00 +4°C° 0.1 mm 1 mps 627 mmHg 71%
    21:00 +4°C° 0.1 mm 1 mps 627 mmHg 71%
    22:00 +4°C° 0.4 mm 1 mps 627 mmHg 74%
    23:00 +4°C° 0.4 mm 1 mps 627 mmHg 77%
    Show more